Вернуться в каталог

COSMOS 2532

АктивенВоенныеPO
NORAD 43753·PAYLOAD·🇷🇺 Russia

Запущен Nov 30, 2018 с Plesetsk Cosmodrome

Loading…

Ближайшие Пролёты (ближайшие 24 часа)

TLE

СвежийSource: Space-Track

Эпоха: Sep 14, 2026, 14:47 UTC

1 43753U 18097C   26257.61626977  .00000033  00000-0  16467-3 0  9996
2 43753  82.5182 166.6281 0016688 220.9809 139.0018 12.42911753353388

Отслеживайте COSMOS 2532 в реальном времени с AllMySat

Download on the App Store